Location: Newark
(39.5667°N, 8.9833°E)
Time: 05:34:15
(UTC+00:00)

Vanguard 1 - Visible Passes

Search period start: 21 October 2019 00:00
Search period end: 31 October 2019 00:00
Orbit: 653 x 3830 km, 34.2° (Epoch: 20 October)

Date Brightness Start Highest point End Pass type
(mag) Time Alt. Az. Time Alt. Az. Time Alt. Az.
21 Oct 13.8 01:51:49 17° S 01:51:49 17° S 01:56:57 10° S visible
21 Oct 11.3 18:41:20 10° WSW 18:49:23 64° SSE 18:54:21 41° ESE visible
21 Oct 12.3 21:00:53 10° W 21:07:02 44° WSW 21:07:02 44° WSW visible
21 Oct13.923:59:04SE23:59:04SE23:19:44Wvisible
22 Oct 13.9 02:11:48 14° SSW 02:11:48 14° SSW 02:14:58 10° S visible
22 Oct 11.3 19:02:08 10° WSW 19:10:27 67° S 19:13:53 51° ESE visible
22 Oct 12.6 21:21:53 10° W 21:26:34 33° W 21:26:34 33° W visible
23 Oct 11.2 17:04:24 10° SW 17:10:28 45° SSE 17:20:44 11° E visible
23 Oct 11.4 19:22:59 10° W 19:31:35 68° S 19:33:25 62° SE visible
23 Oct 12.9 21:42:56 10° W 21:46:06 24° W 21:46:06 24° W visible
24 Oct 11.1 17:24:57 10° WSW 17:31:16 53° SSE 17:40:16 16° E visible
24 Oct 11.5 19:43:51 10° W 19:52:45 67° S 19:52:58 67° S visible
24 Oct 13.2 22:04:05 10° W 22:05:39 16° W 22:05:39 16° W visible
25 Oct 11.0 17:45:38 10° WSW 17:52:11 60° SSE 17:59:50 22° E visible
25 Oct 11.6 20:04:47 10° W 20:12:31 59° SW 20:12:31 59° SW visible
26 Oct 11.0 18:06:24 10° WSW 18:13:10 63° S 18:19:25 29° ESE visible
26 Oct 11.9 20:25:44 10° W 20:32:06 47° WSW 20:32:06 47° WSW visible
27 Oct 11.1 18:27:13 10° W 18:34:13 64° S 18:39:01 37° ESE visible
27 Oct 12.3 20:46:45 10° W 20:51:42 35° WSW 20:51:42 35° WSW visible
28 Oct 11.2 18:48:05 10° W 18:55:18 62° S 18:58:39 46° SE visible
28 Oct 12.7 21:07:52 10° W 21:11:21 25° WSW 21:11:21 25° WSW visible
29 Oct 10.7 16:50:02 10° WSW 16:55:27 55° SSE 17:04:40 10° E visible
29 Oct 11.3 19:08:57 10° W 19:16:24 57° S 19:18:19 51° SSE visible
29 Oct 13.0 21:29:09 10° W 21:31:01 17° WSW 21:31:01 17° WSW visible
30 Oct 10.7 17:10:48 10° WSW 17:16:23 59° S 17:25:19 12° E visible
30 Oct 11.5 19:29:54 10° W 19:37:31 51° SSW 19:38:01 51° S visible
30 Oct 13.3 21:50:42 10° W 21:50:43 10° W 21:50:43 10° W visible
